Location: Bjelajci
(45.0103°N, 16.1758°E)
Time: 04:36:10
(UTC+00:00)

Meteor 2-11 Rocket - Pass Details

Date: 14 July 2020
Orbit: 939 x 957 km, 82.5° (Epoch: 11 August)

Event Time Altitude Azimuth Distance (km) Brightness Sun altitude
Exits shadow 01:48:22 13° 189° (S) 2,434 6.1 -13.3°
Maximum altitude 01:53:52 86° 277° (W) 950 4.4 -12.6°
Drops below altitude 10° 01:59:58 10° 8° (N) 2,665 7.7 -11.9°
Sets 02:02:28 0° 9° (N) 3,613 8.5 -11.6°
